User: anonymous   Login
Location: Unspecified
(0.0000°N, 0.0000°E)
Time: 03:31:18
(UTC+00:00)
Language:

GALILEO-FM2 - Orbit

View from above orbital plane
View from above orbital plane
View from above satellite
View from above satellite

Ground track
Ground track

The orbit data is extracted from the following two-line orbital elements,

1 37847U 11060B   17349.28580556 -.00000079  00000-0  00000+0 0  9996
2 37847  55.9666  66.6477 0004393 293.4118 359.4699  1.70475863 38299
Epoch (UTC): 15 December 2017 06:51:33
Eccentricity: 0.0004393
inclination: 55.9666°
perigee height: 23209 km
apogee height: 23235 km
right ascension of ascending node: 66.6477°
argument of perigee: 293.4118°
revolutions per day: 1.70475863
mean anomaly at epoch: 359.4699°
orbit number at epoch: 3829

The dashed part of the orbit path shows where the satellite is in the earth's shadow,  

DLR